TimeCDT,TemperatureF,Dew PointF,Humidity,Sea Level PressureIn,VisibilityMPH,Wind Direction,Wind SpeedMPH,Gust SpeedMPH,PrecipitationIn,Events,Conditions,WindDirDegrees,DateUTC
12:15 AM,52.0,51.1,97,30.35,0.2,North,3.5,-,N/A,Fog,Fog,350,2012-09-14 05:15:00
12:35 AM,51.3,50.5,97,30.35,0.2,NNW,4.6,-,N/A,Fog,Fog,340,2012-09-14 05:35:00
12:55 AM,50.9,50.2,97,30.35,0.2,North,5.8,-,N/A,Fog,Fog,350,2012-09-14 05:55:00
1:15 AM,50.4,49.6,97,30.35,0.2,North,4.6,-,N/A,Fog,Fog,350,2012-09-14 06:15:00
1:35 AM,50.4,49.8,98,30.35,0.2,NNW,3.5,-,N/A,Fog,Fog,340,2012-09-14 06:35:00
1:55 AM,50.4,50.0,99,30.35,0.2,Calm,Calm,-,N/A,Fog,Fog,0,2012-09-14 06:55:00
2:15 AM,50.4,49.8,98,30.35,0.2,Calm,Calm,-,N/A,Fog,Fog,0,2012-09-14 07:15:00
2:35 AM,49.8,49.1,97,30.35,0.2,Calm,Calm,-,N/A,Fog,Fog,0,2012-09-14 07:35:00
2:55 AM,49.1,48.2,97,30.35,0.2,NW,3.5,-,N/A,Fog,Fog,320,2012-09-14 07:55:00
3:15 AM,48.6,48.2,99,30.34,0.2,Calm,Calm,-,N/A,Fog,Fog,0,2012-09-14 08:15:00
3:35 AM,48.6,48.4,99,30.34,0.2,Calm,Calm,-,N/A,Fog,Fog,0,2012-09-14 08:35:00
3:55 AM,48.2,48.0,99,30.34,0.2,Calm,Calm,-,N/A,Fog,Fog,0,2012-09-14 08:55:00
4:15 AM,48.2,48.0,99,30.34,0.2,Calm,Calm,-,N/A,Fog,Fog,0,2012-09-14 09:15:00
4:35 AM,47.5,47.3,99,30.34,0.2,Calm,Calm,-,N/A,Fog,Fog,0,2012-09-14 09:35:00
4:55 AM,46.9,46.4,98,30.35,0.2,Calm,Calm,-,N/A,Fog,Fog,0,2012-09-14 09:55:00
5:15 AM,46.0,45.5,98,30.36,0.5,Calm,Calm,-,N/A,Fog,Fog,0,2012-09-14 10:15:00
5:35 AM,45.5,45.1,99,30.35,0.2,Calm,Calm,-,N/A,Fog,Fog,0,2012-09-14 10:35:00
5:55 AM,45.5,45.3,99,30.36,0.2,Calm,Calm,-,N/A,Fog,Fog,0,2012-09-14 10:55:00
6:15 AM,45.5,45.1,99,30.36,0.2,Calm,Calm,-,N/A,Fog,Fog,0,2012-09-14 11:15:00
6:35 AM,45.7,45.5,99,30.36,0.2,Calm,Calm,-,N/A,Fog,Fog,0,2012-09-14 11:35:00
6:55 AM,45.5,45.3,99,30.36,0.2,Calm,Calm,-,N/A,Fog,Fog,0,2012-09-14 11:55:00
7:15 AM,45.5,45.5,100,30.37,0.2,Calm,Calm,-,N/A,Fog,Fog,0,2012-09-14 12:15:00
7:35 AM,46.0,45.9,99,30.37,1.2,Calm,Calm,-,N/A,,Overcast,0,2012-09-14 12:35:00
7:55 AM,47.3,47.1,99,30.38,3.0,Calm,Calm,-,N/A,,Mostly Cloudy,0,2012-09-14 12:55:00
8:15 AM,49.1,48.9,99,30.38,5.0,Calm,Calm,-,N/A,,Scattered Clouds,0,2012-09-14 13:15:00
8:35 AM,50.5,50.5,100,30.38,7.0,Calm,Calm,-,N/A,,Clear,0,2012-09-14 13:35:00
8:55 AM,52.7,51.8,97,30.39,10.0,North,3.5,-,N/A,,Clear,10,2012-09-14 13:55:00
9:15 AM,54.7,52.9,94,30.39,10.0,North,4.6,-,N/A,,Clear,360,2012-09-14 14:15:00
9:35 AM,55.0,52.0,89,30.39,10.0,North,4.6,-,N/A,,Clear,360,2012-09-14 14:35:00
9:55 AM,57.0,52.2,84,30.39,10.0,North,4.6,-,N/A,,Clear,10,2012-09-14 14:55:00
10:15 AM,59.0,52.0,78,30.39,10.0,Calm,Calm,-,N/A,,Clear,0,2012-09-14 15:15:00
10:35 AM,60.3,50.7,71,30.39,10.0,Calm,Calm,-,N/A,,Clear,0,2012-09-14 15:35:00
10:55 AM,62.1,51.1,67,30.39,10.0,Calm,Calm,-,N/A,,Clear,0,2012-09-14 15:55:00
11:15 AM,66.0,49.5,55,30.39,10.0,Calm,Calm,-,N/A,,Clear,0,2012-09-14 16:15:00
11:35 AM,67.3,45.1,45,30.39,10.0,Calm,Calm,-,N/A,,Clear,0,2012-09-14 16:35:00
11:55 AM,68.5,37.0,31,30.39,10.0,Calm,Calm,-,N/A,,Clear,0,2012-09-14 16:55:00
12:15 PM,68.4,39.0,34,30.38,10.0,East,3.5,-,N/A,,Clear,100,2012-09-14 17:15:00
12:35 PM,68.0,40.1,36,30.37,10.0,Calm,Calm,-,N/A,,Clear,0,2012-09-14 17:35:00
12:55 PM,68.9,39.4,34,30.37,10.0,Calm,Calm,-,N/A,,Clear,0,2012-09-14 17:55:00
1:15 PM,69.8,40.5,34,30.37,10.0,Calm,Calm,-,N/A,,Clear,0,2012-09-14 18:15:00
1:35 PM,70.2,40.8,34,30.36,10.0,South,5.8,-,N/A,,Clear,190,2012-09-14 18:35:00
1:55 PM,69.8,38.5,32,30.35,10.0,Calm,Calm,-,N/A,,Clear,0,2012-09-14 18:55:00
2:15 PM,71.4,42.6,35,30.34,10.0,SSW,6.9,-,N/A,,Clear,210,2012-09-14 19:15:00
2:35 PM,71.2,39.2,31,30.34,10.0,Calm,Calm,-,N/A,,Clear,0,2012-09-14 19:35:00
2:55 PM,71.6,38.5,30,30.34,10.0,SW,4.6,-,N/A,,Clear,230,2012-09-14 19:55:00
3:15 PM,71.2,39.2,31,30.33,10.0,Calm,Calm,-,N/A,,Clear,0,2012-09-14 20:15:00
3:35 PM,71.2,42.1,35,30.33,10.0,Calm,Calm,-,N/A,,Clear,0,2012-09-14 20:35:00
3:55 PM,71.6,39.4,31,30.32,10.0,Calm,Calm,-,N/A,,Clear,0,2012-09-14 20:55:00
4:15 PM,70.7,43.7,38,30.32,10.0,Calm,Calm,-,N/A,,Clear,0,2012-09-14 21:15:00
4:35 PM,70.5,43.7,38,30.32,10.0,Calm,Calm,-,N/A,,Clear,0,2012-09-14 21:35:00
4:55 PM,71.1,41.2,34,30.32,10.0,WSW,4.6,-,N/A,,Clear,250,2012-09-14 21:55:00
5:15 PM,70.9,41.2,34,30.32,10.0,WSW,3.5,-,N/A,,Clear,250,2012-09-14 22:15:00
5:35 PM,69.3,46.6,44,30.32,10.0,Calm,Calm,-,N/A,,Clear,0,2012-09-14 22:35:00
5:55 PM,67.3,49.3,52,30.32,10.0,Calm,Calm,-,N/A,,Clear,0,2012-09-14 22:55:00
6:15 PM,66.6,48.9,53,30.32,10.0,Calm,Calm,-,N/A,,Clear,0,2012-09-14 23:15:00
6:35 PM,64.4,50.2,60,30.32,10.0,Calm,Calm,-,N/A,,Clear,0,2012-09-14 23:35:00
6:55 PM,63.3,51.3,65,30.32,10.0,Calm,Calm,-,N/A,,Clear,0,2012-09-14 23:55:00
7:15 PM,61.0,50.7,69,30.31,10.0,Calm,Calm,-,N/A,,Clear,0,2012-09-15 00:15:00
7:35 PM,58.5,51.8,79,30.31,10.0,Calm,Calm,-,N/A,,Clear,0,2012-09-15 00:35:00
7:55 PM,55.2,50.4,84,30.32,10.0,Calm,Calm,-,N/A,,Clear,0,2012-09-15 00:55:00
8:15 PM,55.6,51.6,87,30.32,10.0,Calm,Calm,-,N/A,,Clear,0,2012-09-15 01:15:00
8:35 PM,55.2,49.6,81,30.32,10.0,Calm,Calm,-,N/A,,Clear,0,2012-09-15 01:35:00
8:55 PM,52.7,50.2,91,30.32,10.0,Calm,Calm,-,N/A,,Clear,0,2012-09-15 01:55:00
9:15 PM,52.9,50.0,90,30.32,10.0,Calm,Calm,-,N/A,,Clear,0,2012-09-15 02:15:00
9:35 PM,51.3,48.6,90,30.33,10.0,Calm,Calm,-,N/A,,Clear,0,2012-09-15 02:35:00
9:55 PM,51.1,49.6,95,30.33,10.0,Calm,Calm,-,N/A,,Clear,0,2012-09-15 02:55:00
10:15 PM,51.4,49.5,93,30.33,10.0,Calm,Calm,-,N/A,,Clear,0,2012-09-15 03:15:00
10:35 PM,50.5,48.9,94,30.33,10.0,Calm,Calm,-,N/A,,Clear,0,2012-09-15 03:35:00
10:55 PM,50.0,48.7,95,30.33,10.0,Calm,Calm,-,N/A,,Clear,0,2012-09-15 03:55:00
11:15 PM,49.1,47.7,95,30.33,10.0,Calm,Calm,-,N/A,,Clear,0,2012-09-15 04:15:00
11:35 PM,49.5,46.8,90,30.33,10.0,Calm,Calm,-,N/A,,Clear,0,2012-09-15 04:35:00
11:55 PM,48.7,47.1,94,30.32,10.0,SSW,3.5,-,N/A,,Clear,210,2012-09-15 04:55:00